Temp
26 27 27 27 25 26 27 26 28 27 27 27 27 26 26 24 24 21 22 23 21 20 20 19 19 18 18 18 18 17 17 16 16 16 16 16 16 16 17 18 17 17 16 16 16 15 15 15 15
26 26 27 25 25 26 26 27 28 27 26 26 26 27 27 24 24 23 23 23 22 21 20 19 19 19 18 18 18 17 16 16 16 16 16 16 16 16 17 17 17 16 16 16 15 15 14 15 16
25 26 25 26 27 26 26 29 26 25 26 27 26 26 27 24 23 23 23 23 22 22 20 19 19 18 18 18 18 17 16 16 16 16 16 16 16 16 16 16 16 16 15 15 15 14 14 15 16
26 28 26 26 28 27 28 28 26 25 26 26 27 25 25 24 25 24 23 23 22 22 21 20 19 19 18 18 18 18 17 16 16 16 15 15 15 15 15 15 16 16 15 14 14 14 14 15 16
26 26 25 27 29 28 28 28 27 26 25 25 27 25 23 24 23 23 23 23 22 22 21 20 19 19 18 18 18 18 17 16 16 16 15 15 15 15 15 15 15 14 14 14 14 14 15 15 16
26 27 25 26 28 28 28 28 28 28 27 25 26 27 23 23 22 23 23 23 22 21 21 20 19 18 18 18 18 17 17 16 16 16 15 15 15 15 14 14 14 14 13 13 13 14 15 15 16
26 25 25 27 28 29 28 28 28 28 26 26 27 27 23 22 23 22 22 23 22 21 20 19 18 18 18 18 17 17 17 16 16 16 16 15 15 15 14 14 13 13 13 13 13 15 14 14 15
24 26 26 28 27 28 27 27 28 29 27 26 27 25 23 23 23 22 22 23 23 22 20 19 18 18 18 18 17 17 17 16 16 17 16 16 16 15 14 14 13 13 13 12 13 14 14 14 14
26 24 24 27 29 28 26 26 27 25 26 26 25 25 24 24 23 22 22 23 22 22 20 20 19 18 18 17 17 17 17 16 16 16 16 16 15 15 14 14 13 13 12 12 14 14 13 13 13
24 23 26 27 26 26 26 27 24 26 25 25 24 21 23 23 22 22 22 23 22 22 20 20 20 19 19 18 17 17 16 16 16 16 16 16 15 14 14 14 14 14 14 14 14 13 13 13 13
26 25 26 26 24 25 27 27 28 25 25 25 24 21 21 22 22 22 22 23 22 21 20 19 19 19 19 18 18 17 16 16 16 16 16 16 15 15 15 14 13 14 14 13 13 13 13 13 13
25 27 26 25 23 25 26 26 26 24 26 26 24 23 20 19 20 21 22 22 22 21 21 20 19 19 19 18 18 17 17 16 16 16 16 16 16 15 15 14 14 14 13 13 12 12 12 12 12
24 26 25 23 23 23 23 23 24 24 24 25 24 23 20 19 21 22 23 23 23 22 21 21 20 19 19 18 18 18 17 17 17 16 16 16 16 14 15 14 14 13 13 12 12 12 11 11 11
24 25 25 23 23 24 22 23 24 24 23 24 22 22 22 20 22 23 23 23 23 23 22 21 20 20 19 19 18 18 18 17 17 17 16 16 16 15 14 14 13 13 13 12 12 11 11 10 11
24 24 23 23 23 23 23 21 22 23 24 24 24 21 22 21 24 23 24 23 23 23 22 22 20 20 19 18 18 18 18 18 18 17 16 16 16 15 14 14 14 13 13 12 11 11 10 10 9
23 24 23 24 22 22 22 21 25 25 24 22 23 22 22 22 24 25 25 24 23 23 22 21 20 19 19 18 18 18 18 18 18 18 17 16 15 16 14 14 14 13 12 12 12 11 10 9 9
23 21 22 22 22 22 21 22 25 24 24 23 22 22 22 22 23 25 25 25 23 23 22 21 20 19 18 17 17 18 18 18 18 18 17 17 16 15 15 14 13 13 12 12 12 11 11 9 8
22 22 24 25 21 21 21 19 21 22 22 21 21 22 22 22 22 25 25 24 24 23 22 21 20 19 18 17 17 17 17 18 18 18 18 17 16 16 15 14 13 13 12 11 11 11 9 9 8
24 23 22 24 21 22 20 20 22 23 22 22 22 22 21 22 24 27 26 25 24 22 21 21 20 18 17 17 17 17 17 17 17 17 17 17 17 16 15 14 13 12 12 12 11 10 9 8 7
23 22 21 22 20 21 20 20 21 22 22 23 22 22 22 23 22 24 26 25 23 22 22 21 19 18 17 16 16 16 16 16 16 16 16 16 16 15 15 15 14 13 11 10 9 10 7 6 7
21 21 21 21 21 19 19 18 19 22 22 23 22 23 22 22 22 23 22 24 23 22 21 20 19 18 16 16 15 15 15 15 15 15 14 14 14 14 15 14 13 13 11 11 11 10 9 6 7
20 21 21 21 20 18 22 16 21 22 23 23 22 20 20 21 22 22 23 22 22 22 21 20 19 18 17 16 15 15 15 14 14 14 13 13 12 13 14 14 14 13 11 10 10 10 9 7 6
20 20 21 21 19 18 19 16 19 21 23 23 24 22 22 22 23 23 20 24 23 21 20 19 18 18 17 16 15 15 14 14 14 13 13 12 10 11 12 13 13 13 12 11 11 10 7 9 7
19 20 20 20 18 15 19 18 19 21 24 26 26 26 26 24 22 22 22 22 23 22 20 19 18 17 17 16 15 15 14 14 13 13 12 11 9 10 11 12 12 12 11 11 11 10 8 8 7
19 19 16 15 14 15 20 19 21 23 24 24 24 22 22 23 22 21 20 18 19 20 19 18 17 17 16 16 15 14 14 13 13 13 12 11 8 9 10 11 12 11 11 11 11 8 6 7 7
16 18 15 14 15 16 16 16 18 23 24 24 23 20 19 21 18 18 19 18 18 18 17 16 16 15 15 15 14 14 14 13 12 13 12 12 12 11 10 10 11 11 11 10 9 8 8 7 6
17 16 19 16 9 12 16 19 21 21 22 22 20 20 19 19 18 18 17 19 18 16 15 15 14 14 14 14 14 13 13 13 12 13 12 11 11 11 10 11 11 10 9 9 8 8 7 6 7
17 18 16 14 13 13 16 17 19 20 22 21 20 19 18 17 16 16 17 17 17 16 14 14 13 13 13 14 13 13 12 12 12 12 12 11 10 10 9 9 10 9 8 8 7 7 7 7 5
15 16 17 17 15 13 15 17 22 20 20 19 19 19 18 17 16 15 14 15 15 14 13 13 13 12 12 12 13 12 12 11 11 11 11 10 10 9 8 9 9 9 8 7 7 7 7 6 6
17 17 17 14 15 13 14 18 21 19 20 20 19 19 19 18 16 15 15 15 15 14 13 12 12 12 12 12 11 11 11 10 10 10 10 10 9 8 8 8 8 8 8 7 5 6 6 6 5
Height
789 789 789 788 811 800 806 812 795 807 806 801 800 808 813 813 821 841 823 825 829 834 837 841 844 847 849 851 852 853 853 854 855 856 855 856 857 858 857 858 859 859 860 861 862 861 861 861 862
789 789 788 788 812 816 817 800 804 803 803 801 805 806 807 822 813 819 823 825 829 833 837 841 844 847 850 852 853 854 855 856 857 858 858 858 859 860 860 861 862 862 863 865 865 865 865 865 866
790 790 794 798 803 818 818 794 802 804 801 803 807 805 807 819 816 820 823 826 830 834 836 840 844 848 851 853 855 856 856 857 858 859 860 860 860 861 863 863 864 865 866 867 868 867 867 869 869
790 788 789 809 806 802 800 795 797 806 805 803 803 815 812 815 816 819 823 827 831 835 837 841 844 847 851 854 855 857 858 859 859 860 861 862 863 864 864 865 866 868 869 869 869 870 870 872 872
789 788 809 807 798 795 794 791 794 803 806 808 805 814 819 817 818 821 825 828 832 835 838 841 845 848 851 853 856 857 858 859 860 862 863 864 865 866 867 868 867 870 870 870 871 872 872 875 875
795 790 815 816 802 795 792 791 793 798 800 807 809 808 817 817 821 823 826 828 832 835 838 842 845 848 851 854 856 858 860 861 862 863 864 865 867 868 869 870 870 871 871 873 874 874 875 878 878
796 803 814 804 799 797 794 790 796 798 803 807 802 811 817 818 820 823 827 829 831 835 838 842 845 848 852 854 857 859 861 862 863 865 866 867 868 869 871 871 872 873 874 875 876 876 879 880 880
795 797 809 800 807 802 794 793 791 795 804 799 801 814 819 815 820 823 827 829 831 834 839 842 845 848 851 854 857 859 861 863 864 865 866 868 869 871 872 873 874 875 876 878 878 879 881 882 883
792 812 818 802 796 797 794 799 796 795 800 802 804 807 810 812 818 823 826 828 830 834 838 842 845 848 851 853 856 858 861 863 864 866 868 869 870 872 874 874 875 876 878 879 880 882 884 885 886
801 813 805 792 791 798 796 797 801 802 804 806 806 809 811 813 818 820 823 825 828 832 837 841 843 847 850 852 855 858 860 862 864 866 867 869 871 872 874 875 877 878 879 880 882 885 887 888 888
795 807 795 793 795 794 795 797 791 802 807 800 804 806 810 813 817 819 821 822 826 831 835 838 840 844 847 849 852 855 858 861 863 865 867 869 870 872 874 876 877 879 880 882 884 886 888 888 890
804 792 792 796 799 799 799 795 797 799 797 791 793 795 803 809 813 814 817 819 823 826 830 834 837 840 844 846 849 852 854 858 860 863 866 867 868 870 872 875 877 879 882 883 885 886 887 889 891
803 793 795 798 800 801 800 803 802 798 792 790 793 796 802 806 809 812 814 817 820 822 825 829 833 836 840 843 845 848 850 853 856 859 863 864 865 867 870 873 876 878 881 882 884 886 887 888 890
796 796 794 798 800 800 806 803 800 791 788 790 793 796 798 801 804 808 810 812 814 817 820 823 828 832 836 838 841 844 847 849 852 855 858 860 863 865 867 869 874 877 879 881 883 884 886 888 889
798 805 800 800 800 802 802 810 804 788 787 789 789 793 794 796 798 800 802 805 808 811 815 819 822 827 830 833 837 839 843 846 848 852 854 857 860 862 864 867 870 873 876 879 881 883 885 887 889
805 802 814 793 801 803 806 816 785 781 784 790 788 790 790 790 791 793 796 798 803 807 809 813 817 821 825 828 832 835 838 841 844 847 850 853 855 858 861 864 867 870 872 875 877 881 884 887 889
806 822 812 808 799 803 811 809 785 783 784 788 787 786 785 784 784 784 789 792 795 799 803 807 811 815 819 824 828 831 834 837 840 843 844 847 850 852 855 859 863 865 867 871 874 877 880 885 890
815 814 804 800 806 805 812 813 798 787 787 788 785 781 780 778 776 776 780 784 789 792 797 801 805 808 814 820 823 825 828 832 836 838 841 842 845 847 849 853 858 861 863 867 871 874 879 881 886
800 805 811 797 802 804 809 806 796 786 781 781 778 775 774 772 768 769 771 775 781 786 791 794 798 801 807 812 815 817 819 823 827 832 835 837 840 842 843 847 850 855 858 860 864 870 874 880 881
801 811 814 802 805 807 808 804 790 784 777 770 771 769 766 763 762 761 763 767 771 776 782 786 790 794 798 803 806 810 812 816 819 823 827 830 833 837 837 839 843 847 852 856 860 862 870 875 875
808 813 812 812 805 805 809 809 791 771 765 763 762 758 758 757 757 756 756 758 762 768 774 779 783 786 790 797 802 806 811 813 814 814 817 821 825 829 832 832 836 841 845 847 851 856 859 865 870
818 800 803 807 817 831 801 831 789 775 767 763 760 757 753 752 750 750 752 754 756 758 764 771 778 783 786 791 794 796 796 800 802 805 808 812 818 821 824 825 829 833 838 840 843 848 851 857 858
807 803 804 805 818 821 813 832 793 774 773 763 753 749 748 745 745 746 747 747 751 755 759 764 771 776 780 784 786 789 792 793 797 801 805 807 810 815 817 819 821 825 828 832 837 839 846 845 853
801 807 810 811 820 839 812 817 791 779 764 751 744 743 742 744 746 746 746 748 750 753 757 761 765 768 773 777 780 782 783 786 790 793 797 799 802 806 809 810 813 817 820 823 829 832 834 837 846
803 814 838 846 853 839 798 806 778 758 750 750 750 751 748 746 747 748 748 749 751 753 756 759 762 764 769 773 776 779 783 786 787 789 788 791 795 797 800 804 806 810 813 817 821 824 829 830 836
813 810 834 847 843 827 812 810 786 750 745 745 747 750 748 749 749 749 748 747 748 751 753 756 759 763 767 770 772 776 779 781 783 786 784 784 787 790 794 798 801 804 807 811 815 817 820 826 831
807 815 797 818 849 844 807 780 759 752 752 750 751 750 751 750 749 748 747 747 748 751 754 756 758 760 763 765 768 770 772 774 775 778 779 779 782 785 787 791 794 797 801 804 808 811 815 819 824
794 792 817 822 842 844 805 799 782 764 756 755 754 755 754 753 753 751 747 748 750 752 753 755 757 759 760 762 764 765 768 770 772 775 774 774 775 778 781 784 788 790 794 797 801 805 808 813 818
802 803 798 799 811 829 818 791 747 760 759 759 758 757 755 755 756 752 750 750 752 754 755 755 755 757 758 759 761 761 762 764 766 767 768 767 769 773 774 777 781 784 787 791 795 798 801 805 810
785 786 791 810 809 814 809 777 745 752 753 752 756 755 752 750 751 750 750 749 749 751 753 753 753 753 753 754 757 757 757 758 760 761 763 764 765 765 767 771 774 778 781 785 789 792 794 798 802
Wind_Speed
6 11 10 6 2 3 3 4 6 6 5 3 8 5 2 9 5 3 20 16 22 20 18 17 14 13 13 12 12 13 14 14 14 14 16 15 16 15 18 16 19 22 20 20 19 20 21 21 23
5 7 4 4 3 2 4 8 5 7 8 7 6 2 1 4 7 9 17 17 22 21 17 17 16 15 14 13 12 13 15 15 14 14 15 16 16 17 18 16 19 20 20 19 19 19 21 22 26
4 4 1 3 3 5 4 4 10 9 7 5 4 2 3 4 10 18 16 21 21 21 16 16 16 16 15 13 13 13 15 15 15 15 15 16 16 17 17 17 18 19 18 18 18 20 21 23 25
5 4 3 2 4 7 7 5 12 8 3 4 3 6 5 4 13 13 20 21 21 18 18 17 17 17 16 15 13 13 13 14 15 15 15 16 16 16 17 17 18 15 17 18 19 19 21 23 24
4 3 3 4 3 5 6 6 8 6 7 8 3 5 5 4 13 17 20 22 19 18 19 17 17 18 17 15 13 12 13 14 14 14 15 15 16 16 17 17 17 17 18 19 20 19 22 23 26
2 1 4 5 5 6 5 5 5 6 7 6 3 2 4 13 12 17 19 19 21 16 15 17 18 18 17 16 14 13 13 13 14 14 15 16 16 16 17 17 18 18 19 19 19 21 24 25 24
2 3 8 7 3 1 5 5 3 5 8 5 3 1 4 12 15 17 18 17 19 19 15 17 19 18 16 15 15 14 13 13 14 13 14 15 16 16 17 17 17 18 18 19 19 21 23 23 23
3 1 7 5 5 2 6 5 2 2 3 3 3 3 5 13 17 17 16 17 19 22 16 15 18 19 18 17 16 15 14 14 14 14 14 15 15 15 17 17 17 18 18 19 19 23 24 25 24
2 2 4 6 3 2 7 5 1 3 5 1 5 3 3 23 18 17 18 18 19 18 18 18 18 16 16 18 18 17 16 16 16 16 16 17 17 16 14 16 17 18 19 19 19 23 24 23 21
2 3 5 7 8 6 6 5 9 3 5 4 5 8 6 20 19 17 19 18 16 19 19 20 20 18 18 17 19 20 19 19 19 19 18 16 15 13 15 17 17 17 18 18 22 22 20 20 21
4 3 5 7 6 7 4 2 2 5 5 8 10 13 11 15 18 18 20 18 21 19 21 22 23 22 22 22 20 22 22 22 20 20 20 20 18 15 17 18 18 18 19 24 21 15 13 12 15
3 5 3 3 4 3 2 5 4 8 5 5 6 13 15 11 16 21 23 23 27 28 26 25 26 24 24 23 23 24 24 24 24 22 21 24 22 20 20 19 19 19 22 20 15 15 16 16 17
3 2 3 7 4 3 4 6 6 7 10 6 6 10 12 11 17 23 24 24 25 28 28 29 26 27 27 27 25 24 25 26 26 26 26 27 25 22 23 21 22 19 17 17 15 16 17 19 20
5 5 1 6 5 3 2 6 2 7 11 9 9 8 8 11 20 21 23 26 28 30 30 31 32 28 29 28 28 27 25 24 24 26 30 28 27 26 25 24 24 23 22 18 18 19 19 19 19
1 3 6 7 5 2 3 7 11 10 6 6 7 10 10 10 21 24 29 29 30 30 31 30 33 31 30 30 28 26 28 22 23 25 27 30 26 30 28 27 27 25 23 22 22 21 21 20 19
4 2 2 3 8 4 3 6 6 1 6 10 9 9 10 12 19 25 27 30 30 30 30 33 31 34 35 33 32 28 23 27 20 23 28 28 31 29 28 29 28 25 27 27 25 24 24 21 21
5 4 6 4 7 4 6 5 3 3 1 6 7 9 9 10 16 27 26 27 32 32 32 33 33 36 33 30 31 28 28 24 22 23 23 28 32 32 32 28 31 31 30 30 27 27 27 25 22
6 4 6 4 6 1 5 11 12 10 8 10 10 10 9 9 12 27 30 31 29 34 32 33 35 36 35 31 28 27 27 29 26 23 24 23 31 33 35 32 35 35 32 32 30 29 28 29 26
3 5 8 5 3 2 7 11 10 10 10 9 10 10 10 12 13 23 29 34 33 31 34 36 36 36 35 33 33 31 32 30 31 31 30 30 29 30 38 37 36 37 37 37 35 32 33 30 29
1 6 8 8 6 2 7 12 12 10 13 12 11 11 11 9 10 15 28 32 37 37 36 36 38 37 39 35 34 32 34 33 34 35 36 33 33 33 37 40 41 39 39 37 38 38 33 26 35
6 7 7 8 2 6 4 8 10 10 17 12 11 12 10 11 10 8 14 32 36 36 37 37 39 39 39 34 31 27 25 26 28 31 39 41 38 37 41 41 43 40 41 44 44 43 41 29 37
6 3 8 5 5 3 2 6 7 10 9 8 11 10 11 9 9 9 9 17 32 39 40 38 37 35 35 36 34 35 32 27 32 35 35 37 40 38 41 43 43 41 43 45 47 46 46 33 35
3 4 3 1 3 5 4 4 7 9 7 9 9 10 10 8 8 6 9 18 31 33 34 36 35 34 35 38 38 37 32 32 24 30 32 34 33 40 42 43 42 43 45 47 46 47 43 44 34
7 4 2 1 2 6 9 8 4 7 4 2 1 4 5 6 5 6 5 1 11 21 27 30 33 35 37 37 40 37 36 32 29 24 29 32 31 38 43 42 42 42 45 45 47 46 49 48 36
2 5 1 2 0 7 3 3 9 7 8 4 5 8 6 3 1 2 5 4 7 12 18 24 29 32 33 35 35 37 32 31 28 27 32 31 28 36 43 42 41 43 42 43 45 46 44 44 42
8 7 5 7 4 5 4 9 6 3 2 2 4 8 7 5 5 6 7 9 11 14 16 20 22 23 25 30 31 30 32 29 28 30 32 34 35 34 41 44 42 43 41 43 44 45 47 44 38
6 7 7 4 2 3 5 10 12 7 6 5 9 8 9 8 6 6 7 7 9 11 13 16 18 22 23 27 30 31 31 33 32 30 31 32 31 31 36 40 43 41 42 42 43 42 41 41 45
3 1 2 2 3 5 7 7 11 10 14 9 6 6 7 7 9 8 3 2 3 5 9 12 15 17 21 23 26 29 31 31 31 30 29 29 30 30 32 37 40 42 42 42 40 40 39 40 38
2 4 3 2 5 5 5 7 5 6 5 6 7 6 5 5 4 5 4 8 4 1 5 9 12 15 17 20 24 27 29 29 29 31 31 31 31 31 33 34 37 39 39 38 39 39 38 38 38
3 6 10 4 4 3 5 16 2 1 3 4 5 4 3 5 5 3 2 4 4 5 7 10 12 15 17 18 22 25 26 26 29 31 32 30 30 31 32 35 34 35 37 39 40 38 39 39 39
Wind_Direction
330 335 311 293 265 207 109 80 100 101 114 55 52 30 26 49 17 110 145 148 148 149 164 156 147 147 142 134 128 118 111 105 101 99 99 95 93 92 97 94 93 90 85 83 80 79 81 81 87
320 326 257 269 250 246 75 122 126 99 85 82 88 252 295 92 77 128 152 150 154 153 164 163 157 152 152 142 132 124 117 110 106 102 100 100 98 100 102 100 97 93 91 87 85 85 84 85 92
305 285 324 230 279 40 89 53 101 87 115 149 131 359 4 79 107 152 150 146 149 154 156 171 162 159 156 145 137 129 120 115 110 106 102 99 101 102 102 98 99 95 94 94 92 90 90 95 94
288 207 269 263 301 68 50 72 106 119 84 4 9 119 80 352 138 139 147 148 150 154 163 174 166 164 161 152 143 134 126 116 111 107 105 103 104 107 109 107 105 111 102 101 96 94 96 100 94
240 273 260 234 27 87 91 71 126 165 136 142 166 125 92 83 104 132 154 153 154 156 166 169 169 167 166 157 148 143 133 124 117 114 110 108 109 110 110 110 116 107 106 101 100 99 103 104 96
278 244 275 238 93 99 98 125 146 154 121 76 148 254 97 145 141 154 159 156 159 162 172 173 172 171 170 165 156 150 142 135 125 120 117 116 115 115 113 113 110 111 107 106 104 107 108 107 101
262 230 275 323 60 240 113 138 182 170 132 165 47 324 111 142 159 162 166 168 159 166 167 174 172 174 174 172 167 160 153 145 139 132 125 123 124 124 122 118 114 112 112 111 110 113 111 110 105
314 265 277 272 289 75 103 156 356 201 97 84 43 349 148 163 164 164 173 181 167 172 170 177 176 175 175 178 176 169 163 157 154 145 136 131 129 129 129 127 122 118 116 115 116 117 115 113 105
301 302 258 260 194 53 114 172 314 9 112 50 138 61 344 150 154 172 180 192 167 185 174 181 180 182 183 183 180 178 174 171 164 155 146 136 128 123 131 133 129 125 123 122 122 121 116 112 105
223 192 259 16 31 23 131 236 144 155 187 186 138 90 113 143 164 180 187 190 175 189 184 189 189 189 188 193 189 185 181 179 175 166 153 138 131 147 145 140 139 137 133 126 122 119 114 106 96
217 243 33 52 33 27 352 200 327 176 247 196 196 167 173 163 180 190 194 192 192 196 195 195 196 195 193 191 194 191 191 186 183 177 157 156 168 166 155 149 148 142 137 130 124 119 123 124 116
290 239 43 49 50 3 307 325 235 212 222 96 48 147 158 173 189 196 196 199 191 199 203 203 202 198 199 198 198 195 196 192 189 193 171 180 180 171 166 161 156 147 145 138 142 152 147 133 126
235 247 87 82 106 279 8 271 250 265 233 185 96 115 165 181 197 204 205 204 201 201 200 201 203 204 203 202 201 198 203 202 197 199 189 194 189 182 174 173 166 155 162 164 163 152 150 145 140
6 355 232 149 192 179 243 275 146 243 237 249 158 182 195 185 200 204 210 208 209 203 204 203 202 208 207 207 206 205 197 203 201 203 199 202 201 190 185 187 179 170 176 177 161 160 150 147 149
351 279 214 222 206 172 195 281 237 226 183 215 236 189 198 216 203 208 209 214 211 210 203 202 200 203 208 201 204 204 206 207 211 204 204 205 207 197 198 195 187 182 181 176 174 168 156 153 151
236 210 236 10 136 153 138 266 299 49 190 203 212 238 213 215 214 217 218 213 214 212 205 204 202 202 209 214 204 206 210 214 207 217 212 208 201 208 210 201 192 185 185 186 184 175 162 158 152
200 261 211 158 179 130 182 284 35 97 154 271 258 245 232 214 211 217 219 220 212 213 210 206 207 206 207 210 213 210 209 211 222 216 216 214 209 208 209 209 195 196 194 192 189 179 174 160 153
224 218 244 231 180 184 241 258 282 278 235 223 232 243 248 230 221 213 215 219 220 212 213 209 209 207 206 208 208 211 212 217 219 219 221 219 212 211 208 204 203 202 197 192 190 183 176 168 156
355 321 330 346 132 159 236 261 259 267 267 254 250 235 226 229 234 227 215 213 213 214 211 210 206 204 202 204 204 206 209 211 216 222 224 223 217 214 208 205 204 208 203 199 193 184 175 164 160
173 286 289 288 115 157 276 275 268 258 258 237 237 247 242 245 229 220 215 207 206 209 212 210 206 205 205 204 206 207 209 212 218 218 222 222 219 216 213 212 211 211 205 198 193 187 170 171 176
234 236 258 256 174 213 287 270 259 248 241 258 250 250 250 245 247 241 204 199 204 204 209 211 209 207 206 204 204 207 209 214 212 220 222 225 223 221 222 218 213 213 210 203 201 198 189 177 187
254 296 240 288 338 255 46 288 294 308 289 231 241 235 239 243 242 229 228 197 194 207 211 211 211 209 206 204 204 201 201 204 214 217 226 229 223 223 222 218 216 218 211 206 206 205 198 190 187
212 17 45 14 290 292 206 263 260 232 260 256 259 257 247 236 236 250 217 208 208 211 208 209 210 211 210 208 208 206 207 214 221 224 229 233 230 222 222 221 218 218 215 214 213 208 200 201 198
124 92 87 136 207 275 176 201 226 223 237 258 234 346 39 74 49 18 40 64 212 207 208 209 210 212 211 209 210 211 212 212 211 216 223 229 228 221 221 219 219 220 216 216 219 217 207 205 209
189 150 253 304 146 239 78 284 235 311 305 209 280 291 310 115 83 242 201 228 223 199 204 207 208 212 212 212 214 215 219 221 217 220 217 218 224 224 220 218 219 218 219 224 222 215 205 206 209
199 185 172 203 198 265 354 241 254 178 12 307 300 289 297 241 242 235 247 208 216 218 209 206 210 214 214 215 217 217 220 224 226 229 230 230 235 237 227 222 222 223 222 221 223 219 216 212 208
193 206 234 318 60 9 229 272 291 265 227 275 283 289 296 328 343 277 256 246 198 202 215 217 216 218 216 217 218 218 220 223 225 227 234 234 241 241 234 227 227 225 225 223 221 217 218 215 218
167 253 126 246 185 227 261 271 247 311 299 293 315 17 3 1 352 341 318 67 119 199 221 214 218 224 220 221 222 223 225 227 231 231 234 230 234 239 237 230 230 228 227 223 220 217 222 218 212
133 228 229 161 187 183 255 257 178 130 98 62 41 3 338 337 318 329 81 83 84 212 220 221 219 219 223 223 226 227 228 232 232 231 234 232 235 237 237 231 227 226 223 220 220 218 217 213 214
240 236 207 185 242 230 230 264 95 314 89 83 336 8 353 343 337 23 81 142 171 220 240 231 228 226 226 230 229 231 234 235 233 233 235 231 230 233 235 230 226 226 226 225 219 215 215 214 210